Location: Chaumontel
(49.1247°N, 2.4324°E)
Time: 12:27:54
(UTC+00:00)

CZ-4 R/B - Visible Passes

Search period start: 25 September 2023 00:00
Search period end: 05 October 2023 00:00
Orbit: 521 x 583 km, 97.7° (Epoch: 24 September)

Date Brightness Start Highest point End Pass type
(mag) Time Alt. Az. Time Alt. Az. Time Alt. Az.
25 Sep 2.4 18:07:53 10° ESE 18:11:07 26° ENE 18:14:19 10° N visible
25 Sep 3.1 19:42:21 10° SSW 19:45:48 30° W 19:49:15 10° NNW visible
26 Sep 2.9 19:38:35 10° SSW 19:42:07 33° W 19:45:37 10° NNW visible
27 Sep 2.7 19:34:49 10° SSW 19:38:25 36° W 19:41:59 10° NNW visible
28 Sep 2.6 19:31:04 10° S 19:34:42 40° W 19:38:20 10° NNW visible
29 Sep 2.4 19:27:18 10° S 19:30:59 43° W 19:34:40 10° NNW visible
30 Sep 2.2 19:23:33 10° S 19:27:16 48° W 19:30:59 10° NNW visible
01 Oct 2.0 19:19:47 10° S 19:23:32 53° W 19:27:17 10° NNW visible
02 Oct 1.8 19:16:02 10° S 19:19:48 58° WSW 19:23:34 10° NNW visible
03 Oct 1.6 19:12:18 10° S 19:16:03 65° WSW 19:19:51 10° NNW visible
04 Oct 1.4 19:08:46 12° S 19:12:18 72° WSW 19:16:07 10° NNW visible
